Regional Weather Roundup
Issued by NWS Upton, NY

Current Version | Previous Version | Text Only | Print | Product List | Glossary On
Versions: 1 2 3 4 5 6 7 8 9 10 11 12 13 14 15 16 17 18 19 20 21 22 23 24 25 26 27 28 29 30 31 32 33 34 35 36 37 38 39 40 41 42 43 44 45 46 47 48 49 50
340 ASUS41 KOKX 260809 RWROKX REGIONAL WEATHER ROUNDUP NATIONAL WEATHER SERVICE NEW YORK NY 400 AM EDT FRI MAY 26 2017 NOTE: "FAIR" INDICATES FEW OR NO CLOUDS BELOW 12,000 FEET WITH NO SIGNIFICANT WEATHER AND/OR OBSTRUCTIONS TO VISIBILITY. NYZ071-072-176-178-NJZ106-104-260900- NEW YORK CITY METRO AREA CITY SKY/WX TMP DP RH WIND PRES REMARKS Central Park CLOUDY 56 55 97 VRB5 29.51R Wall St Helipt CLOUDY 57 55 94 W6 29.51R Bronx Bot Gard N/A 55 54 94 SW2 29.48S LaGuardia APRT CLOUDY 57 54 89 N6 29.48R Kennedy INTL LGT RAIN 58 57 97 NW7 29.49R Breezy Point N/A 55 N/A N/A W7 N/A Newark/Liberty LGT RAIN 56 56 100 W6 29.50R Teterboro LGT RAIN 57 56 96 CALM 29.48R $$ NYZ177-179-078>081-260900- LONG ISLAND NEW YORK CITY SKY/WX TMP DP RH WIND PRES REMARKS Jones Beach N/A 55 N/A N/A NW9 N/A Matinecock PT N/A 97 N/A N/A N9 N/A Farmingdale CLOUDY 55 54 96 N9 29.47R MacArthur/ISP LGT RAIN 55 55 100 NE13 29.44F Shirley LGT RAIN 54 54 100 VRB5 29.45F Mt Sinai Harb N/A 52 N/A N/A NE9 N/A Westhampton LGT RAIN 56 54 93 NE8 29.46S East Hampton RAIN 55 54 97 NE5 29.45F Montauk N/A 55 54 96 E7 29.46F $$ NYZ052-065-067-260900- HUDSON VALLEY CITY SKY/WX TMP DP RH WIND PRES REMARKS White Plains LGT RAIN 54 53 97 NW8 29.47R Larchmont Harb N/A 55 N/A N/A NW7 N/A Croton O-T Hud N/A 55 N/A N/A NW3 N/A Newburgh DRIZZLE 54 54 100 N7 29.51R FOG Montgomery LGT RAIN 54 53 97 NE5 29.49S Poughkeepsie HVY RAIN 53 52 96 N3 29.48S FOG Albany LGT RAIN 53 50 89 NW7 29.50F $$ NJZ001-105-106-008-010-013-015-019>022-104-260900- NEW JERSEY CITY SKY/WX TMP DP RH WIND PRES REMARKS Newark/Liberty LGT RAIN 56 56 100 W6 29.50R Teterboro LGT RAIN 57 56 96 CALM 29.48R Caldwell CLOUDY 57 55 93 CALM 29.51R Somerville CLOUDY 58 57 97 CALM 29.49R Linden DRIZZLE 58 56 94 CALM 29.50R Perth Amboy N/A 57 N/A N/A NW6 N/A Sussex CLOUDY 55 55 100 CALM 29.51S Andover N/A 54 53 97 CALM 29.50S Trenton CLOUDY 57 56 96 W5 29.51R Millville MOCLDY 60 60 100 W10 29.54R Atlantic City LGT RAIN 60 57 89 W6 29.53R Wrightstown CLOUDY 58 56 96 SW9 29.49R Toms River CLOUDY 57 56 96 SW8 29.51R Belmar CLOUDY 57 56 96 SW6 29.51R $$ PAZ047>061-062-071-260900- EASTERN PENNSYLVANIA CITY SKY/WX TMP DP RH WIND PRES REMARKS Philadelphia MOCLDY 60 57 89 W8 29.53S Allentown CLOUDY 59 56 89 W3 29.52R Scranton RAIN 58 57 97 CALM 29.52R FOG $$ CTZ002-004>006-009-010-012-RIZ004-006-007-MAZ004-011-015-260900- SOUTHERN NEW ENGLAND IN CT CITY SKY/WX TMP DP RH WIND PRES REMARKS Bradley INTL LGT RAIN 50 50 100 N9 29.51R FOG Hartford RAIN 52 50 93 N7 29.50S Danbury LGT RAIN 51 51 100 NE5 29.50R Wtrbury/Oxford N/A 50 45 81 NE10G18 29.49S Bridgeport LGT RAIN 54 50 86 NE13 29.47S Meriden LGT RAIN 51 49 92 N6 29.49S New Haven RAIN 52 50 93 NE16 29.46S FOG Chester LGT RAIN 52 52 100 N7 29.48S Groton LGT RAIN 53 51 93 N6 29.46F Wilimantic HVY RAIN 52 50 93 N3 29.49F FOG IN RI CITY SKY/WX TMP DP RH WIND PRES REMARKS Providence LGT RAIN 51 51 100 N9 29.49R Block Island LGT RAIN 53 53 100 SE5 29.47F Westerly LGT RAIN 53 52 96 N6 29.46F IN MA CITY SKY/WX TMP DP RH WIND PRES REMARKS Boston DRIZZLE 49 48 97 N20G26 29.50F Worcester LGT RAIN 46 44 93 NE13G25 29.48F Westfield HVY RAIN 50 50 100 N6 29.51R FOG Provincetown CLOUDY 53 52 96 NW6 29.48F Nantucket CLOUDY N/A N/A N/A S14 29.50S $$ ANZ330-335-338-340-345-350-353-355-260900- COASTAL MARINE OBSERVATIONS STATION/POSITION TIME SKY/WX TEMP WIND PRES VSBY WAVE AIR SEA DIR/SP/G HT/PER (UTC) (F) (DEG/KT/KT) (MB) (MI) (FT/S) NY HARB ENTRANCE 0650 57 56 320/ 4/ 6 997.5 5/ 9 20 S FIRE ISLAND 0750 56 55 250/ 16/ 19 997.0 6/ 8 GREAT SOUTH BAY 0730 57 62 40/ 12/ 14 N/A 23 SSW MONTAUK P 0650 56 54 998.1 6/ 8 15 E BARNEGAT LI 0730 58 N/A 6/ 8 HUDSON CANYON 0650 57 53 230/ 16/ 19 998.9 7/ 8 KINGS POINT 0748 56 57 30/ 12/ 13 998.0 EXECUTION ROCKS 0745 56 N/A CENTRAL LI SOUND 0715 54 30/ 10/ 12 N/A 1/ 4 EASTERN LI SOUND NOT AVBL ROBBINS REEF 0748 58 310/ 5/ 6 999.2 $$ >>>>>>>>>>>>>>>>>>>>>>>>>>>> KEY <<<<<<<<<<<<<<<<<<<<<<<<<<< > < > SKY/WX - Sky Condition/Present Weather < > TMP - Temperature in Fahrenheit < > DP - Dew Point in Fahrenheit < > RH - Relative Humidity in Percent < > WIND - Direction (from) and Speed in MPH < > PRES - Mean Sea Level Pressure (inches of Hg) < > WCI - Wind Chill Index < > VSB - VISIBILITY IN MILES < > HX - HEAT INDEX < > TC - TEMPERATURE IN CELSIUS < > VRB - VARIABLE WIND DIRECTION < > < >>>>>>>>>>>>>>>>>>>>>>>>>>>> KEY <<<<<<<<<<<<<<<<<<<<<<<<<<<

USA.gov is the U.S. government's official web portal to all federal, state and local government web resources and services.